HULIANWANG DIGUI-33 (64286 NORAD) Tracking and Keplerian Element Data

This shows tracking and keplerian element data for the satellite.

Feedback or suggestion? Click here.




ElementValue
Catalog64286
NameHULIANWANG DIGUI-33
Epoch Orbit2647
Epoch Day354.2477919
Epoch Year2025
RAAN73.9919
Inclination86.4985
Eccentricity0.0001483
Argument of Perigee116.3365
Mean Anonmoly243.7921
Mean Motion13.24419524
Decay Rate9.1E-07
L11 64286U 25121D 25354.24779190 .00000091 00000+0 17731-3 0 9996
L22 64286 86.4985 73.9919 0001483 116.3365 243.7921 13.24419524 26479



Live tracking and technical data element details for HULIANWANG DIGUI-33 (NORAD 64286). HULIANWANG DIGUI-33 can be tracked NOW for your location showing map with azimuth and elevation plus other details from your city location.







IsCatalogInMostPopularTable: catalog: 64286, numindb: 7
Update: records affected: 1



GetName: 64286 HULIANWANG DIGUI-33

Hit Count: updated at: Mon, 20 Apr 2026 10:12:29 GMT